GFSFLT2_con_mucape_159.txt.gz
CAPE
0 0 0 0 0 0 0 0 0 0 0 0 0 3 76 358 582 520 521 547 353 177 185 203 201 198 529 455 265 248 196 248
0 0 0 0 0 0 0 0 0 0 0 0 0 0 52 125 277 540 717 631 520 403 257 209 245 167 257 639 430 324 272 224
0 0 0 0 0 0 0 0 0 0 0 0 0 0 0 2 120 252 370 583 585 531 391 335 285 247 276 530 658 526 466 405
0 0 0 0 0 0 0 0 0 0 0 0 0 0 0 52 220 259 335 432 504 550 552 495 431 466 486 590 803 720 710 702
0 0 0 0 0 0 0 0 0 0 0 0 5 0 42 100 261 431 457 392 427 459 615 612 502 683 776 814 818 853 1159 1078
0 0 0 0 0 0 0 0 0 0 0 0 6 14 321 424 389 574 583 612 579 547 575 650 583 753 1052 1215 1150 1036 1266 1285
0 0 0 0 0 0 0 0 0 0 0 0 0 37 134 549 436 601 715 688 684 670 565 481 454 428 872 1540 1492 1420 1483 1502
1 0 0 0 0 0 0 0 0 0 0 0 26 88 141 525 465 439 707 789 744 707 794 577 496 332 448 1313 1681 1665 1719 1807
0 9 7 0 0 0 0 0 0 0 0 0 304 304 246 476 589 596 663 905 930 930 867 1383 1017 852 1107 1455 1681 1793 2012 2033
3 11 0 2 22 32 15 4 0 0 0 0 33 385 379 515 500 677 918 807 590 584 535 388 1313 1346 1459 1638 1684 1768 1649 1525
2 1 0 0 37 36 36 29 36 14 18 14 46 114 352 491 726 571 854 817 776 571 179 44 74 1043 1559 1753 1805 1606 1308 1157
2 29 11 5 33 36 11 20 44 34 215 267 188 106 140 466 585 416 789 906 752 381 105 18 844 941 1673 1575 1418 1212 1032 1012
0 3 0 1 53 42 33 0 51 110 102 460 284 174 119 519 453 534 738 461 571 1004 818 817 1064 1208 1468 1306 1291 1152 945 811
15 0 0 3 72 49 16 28 43 249 477 371 484 447 501 550 773 658 597 1148 1548 1183 1438 1602 1569 1609 1502 1323 1155 956 811 594
53 76 42 38 28 93 27 21 11 212 672 429 310 609 686 705 1013 932 684 1249 1611 1782 1673 1531 1472 1364 968 971 875 640 307 26
0 3 28 34 37 200 65 7 10 211 829 740 260 500 756 810 902 941 1204 1069 1712 1717 1436 1263 1294 1144 1048 865 410 146 7 0
0 2 7 121 111 167 82 3 41 618 944 979 934 1060 1132 1060 927 803 998 999 1554 1559 1301 1082 941 906 488 212 82 31 0 0
0 0 8 18 25 93 64 28 69 660 630 893 978 1235 1304 924 892 698 911 976 1268 1397 1249 1052 740 589 301 178 39 0 0 0
0 56 136 41 27 12 38 40 58 294 387 349 483 1038 1009 1732 1293 1192 1179 1377 1280 1367 1250 893 644 543 385 126 2 0 0 0

GFSFLT2_con_mucape_162.txt.gz
CAPE
0 0 0 0 0 0 0 0 0 0 0 0 0 0 0 11 350 443 364 362 317 316 71 27 31 123 143 91 66 116 130 172
0 0 0 0 0 0 0 0 0 0 0 0 0 0 0 0 191 474 539 415 370 248 159 140 96 151 207 203 129 126 220 245
0 0 0 0 0 0 0 0 0 0 0 0 0 0 0 0 0 283 549 545 500 475 338 260 235 183 230 445 290 176 176 215
0 0 0 0 0 0 0 0 0 0 0 0 0 0 0 0 0 0 252 558 654 666 627 534 418 359 271 363 508 367 280 280
0 0 0 0 0 0 0 0 0 0 0 0 0 0 0 5 0 119 272 313 524 655 707 591 498 475 413 320 603 584 409 400
0 0 0 0 0 0 0 0 0 0 0 0 0 0 0 152 216 268 446 372 415 465 558 565 538 562 571 454 518 715 783 688
0 0 0 0 0 0 0 0 0 0 0 0 0 0 0 87 433 428 470 589 528 456 458 531 521 508 688 706 698 729 1032 1088
0 0 0 0 0 0 0 0 0 0 0 0 0 0 62 243 506 503 532 615 644 616 637 649 586 534 884 1083 1045 904 906 1127
0 0 3 0 0 0 0 0 0 0 0 0 6 113 210 166 443 505 543 669 769 806 767 727 524 383 354 823 1213 1147 1164 1408
0 0 0 0 0 2 0 0 0 0 0 1 0 7 151 290 329 525 585 838 836 845 844 1102 776 505 705 1086 1265 1341 1430 1556
0 0 0 0 5 32 23 18 6 0 8 73 72 79 37 205 388 532 606 768 617 406 348 1078 1371 831 982 1193 1356 1492 1289 1471
0 0 0 0 3 42 14 0 4 14 32 181 101 25 5 162 295 489 522 668 515 472 500 499 439 1288 1157 1178 1304 1152 1113 965
0 0 0 29 27 96 42 0 0 47 174 156 151 43 54 169 285 537 694 477 591 796 682 915 852 768 600 342 513 744 831 691
10 11 0 9 74 104 18 21 7 5 26 369 346 238 307 419 357 656 673 489 650 809 569 765 895 714 484 248 481 512 486 556
43 38 64 55 35 32 61 57 45 22 3 72 356 546 296 446 410 501 641 670 801 966 1003 1042 1150 1050 620 540 581 555 587 440
16 5 15 35 53 44 64 85 70 20 100 190 672 768 579 388 482 560 819 934 922 1194 1195 1331 1465 1182 940 622 444 401 399 150
0 0 0 31 229 146 67 82 154 56 82 201 853 1033 905 500 523 675 892 1267 1642 1780 1704 1480 1309 1016 610 463 342 98 2 0
0 0 0 0 3 32 72 16 134 67 33 318 782 1043 1081 767 621 863 1107 1560 1686 1733 1589 1317 1081 888 599 279 79 8 0 0
0 0 0 0 0 9 72 1 6 61 14 157 576 576 1042 846 756 860 940 1166 1492 1591 1344 1142 1057 694 359 250 188 19 0 0

GFSFLT2_con_mucape_165.txt.gz
CAPE
0 0 0 0 0 0 0 0 0 0 0 0 0 0 0 0 166 578 595 423 316 227 224 401 276 307 587 666 749 571 519 810
0 0 0 0 0 0 0 0 0 0 0 0 0 0 0 0 28 536 737 465 410 348 289 311 338 485 556 667 719 734 535 797
0 0 0 0 0 0 0 0 0 0 0 0 0 0 0 0 0 0 766 705 574 500 488 463 487 512 573 721 609 523 741 1146
0 0 0 0 0 0 0 0 0 0 0 0 0 0 0 0 0 0 116 984 719 640 630 656 700 651 705 906 615 497 929 1184
0 0 0 0 0 0 0 0 0 0 0 0 0 0 0 0 209 504 222 1016 837 723 813 1032 899 1123 906 1099 1278 981 1303 882
0 0 0 0 0 0 0 0 0 0 0 0 0 0 0 0 148 726 810 857 1005 945 943 977 1361 1585 1496 1119 1349 1371 1021 749
0 0 0 0 0 0 0 0 0 0 0 0 1 0 0 360 712 928 1088 1097 1094 1115 1096 1083 1150 1219 1332 1134 1529 1745 1527 1418
0 0 0 0 0 0 0 0 0 0 0 0 0 45 381 438 850 1115 1199 1296 1280 1227 1168 1094 1112 1444 1415 1776 1750 2198 1982 1669
0 0 0 0 0 0 0 0 0 0 0 0 42 490 631 762 848 1161 1222 1340 1549 1460 1337 1238 1156 1304 1597 1679 1784 2035 2326 2120
0 0 0 0 0 0 0 0 0 0 0 0 0 23 154 333 829 1193 1245 1353 1639 1722 1551 1633 1393 1213 1361 1940 2162 1917 2220 2343
0 0 0 0 0 0 0 0 0 4 23 41 404 411 332 476 506 831 1177 1487 1719 1854 1996 1819 1971 1610 1398 1644 2158 2114 1553 1644
0 0 0 0 0 16 13 0 0 1 11 7 442 160 153 513 606 547 1075 1500 1105 617 870 1758 1816 1598 1195 994 846 722 1006 1180
0 0 0 0 19 74 106 28 20 7 26 60 395 607 552 598 773 608 973 638 596 633 965 1135 938 1178 972 812 893 786 845 811
5 13 0 32 78 142 90 67 91 86 84 131 260 337 509 924 834 726 570 625 646 1283 1097 1066 975 967 905 854 536 395 388 265
157 35 43 71 10 0 71 100 66 101 96 201 349 528 864 1159 866 848 584 610 932 783 847 1020 973 437 58 66 17 5 62 83
146 88 94 52 51 139 139 133 63 54 55 209 341 431 806 1258 900 964 739 740 1481 1143 979 836 850 561 306 20 116 56 88 102
84 20 3 0 289 204 59 40 33 101 75 129 294 407 514 1291 1080 1017 1258 1137 1279 1264 1040 771 1001 618 439 309 159 124 48 10
20 1 55 0 0 0 37 51 25 118 131 136 244 413 517 1191 1157 1023 1606 1401 1549 1217 1285 1147 1031 742 482 391 297 179 78 16
8 0 0 0 0 13 33 30 17 173 232 266 270 334 645 1319 1133 974 1566 1904 1907 1655 1507 1185 886 591 545 259 19 1 0 0

GFSFLT2_con_mucape_168.txt.gz
CAPE
0 0 0 0 0 0 0 0 0 0 0 0 0 0 0 0 0 0 362 864 933 967 755 975 1104 1144 1128 1255 1618 1282 964 858
0 0 0 0 0 0 0 0 0 0 0 0 0 0 0 0 0 0 258 1022 1117 1134 931 1109 1229 1267 1209 1322 1635 1505 1117 1198
0 0 0 0 0 0 0 0 0 0 0 1 0 0 0 0 0 0 0 1061 1272 1267 1150 1281 1381 1329 1343 1396 1667 1730 1497 1516
0 0 0 0 0 0 0 0 0 0 0 0 0 0 0 0 0 0 222 864 1434 1423 1387 1328 1496 1425 1395 1480 1655 1767 1740 1679
0 0 0 0 0 0 0 0 2 2 0 5 0 0 0 0 0 108 678 926 1623 1633 1674 1576 1629 1596 1422 1592 1693 1841 1622 1738
2 30 0 0 0 0 0 6 1 0 0 0 0 0 0 0 34 112 1313 1331 1764 1764 1858 1878 1907 1980 1858 1780 1736 1931 1723 1870
1 0 0 0 0 0 0 0 0 1 7 9 0 2 0 264 696 1175 1588 1607 1764 1837 2070 2207 2210 2262 2262 2059 2141 2192 2178 2155
0 0 0 0 0 0 0 0 0 0 0 0 0 38 228 250 686 1099 1646 1914 1885 1993 2133 2394 2360 2478 2420 2398 2365 2622 2546 2322
21 17 19 0 0 0 0 0 0 0 0 0 0 27 421 784 1090 1333 1525 1904 2150 2047 2151 2264 2318 2468 2490 2447 2401 2542 2767 2927
43 49 6 5 0 2 0 0 0 1 0 0 15 268 554 722 871 882 1572 1855 2277 2349 2380 2386 2255 2266 2430 2518 2621 2661 2995 2817
58 48 13 17 18 4 5 0 9 69 109 12 256 673 911 1131 1288 1161 1420 1956 2365 2583 2643 2713 2433 2461 2615 2818 2845 2861 2817 2755
56 4 0 22 23 22 5 0 33 137 234 390 545 293 924 1066 1080 1247 1406 2099 2336 2555 2735 2835 2817 2554 2646 2880 2989 2816 2629 2638
30 0 22 38 51 90 18 49 256 313 425 560 864 1050 991 1150 1516 1370 1315 1957 1819 1983 2511 2794 2431 2306 1594 1712 1827 1967 1758 1463
101 63 0 69 53 62 84 127 123 189 391 500 631 748 924 1190 1702 1423 1360 1409 1277 1629 1935 1592 1574 1308 838 860 837 713 520 641
96 102 254 239 116 36 0 126 195 122 126 212 454 666 812 1071 1667 1465 1403 1446 1719 1951 1579 1573 1928 1699 1225 992 924 736 654 523
189 115 138 134 113 31 200 321 189 144 87 146 255 467 782 974 1582 1753 1483 1405 1824 1739 1577 1290 1387 1077 753 374 26 3 99 118
186 178 159 213 122 143 6 7 0 12 63 140 192 421 701 977 1355 1948 1640 1357 1603 1621 1696 1223 1094 633 290 204 100 34 0 0
78 80 87 62 31 1 0 0 28 30 58 235 298 390 628 934 1417 2000 1848 1760 2139 1385 1230 972 831 380 272 178 86 28 9 3
41 15 8 9 0 0 0 0 112 97 77 391 426 330 523 788 1518 1941 1979 2135 1993 1574 917 876 736 660 513 392 299 256 165 19

GFSFLT2_con_mucape_171.txt.gz
CAPE
0 0 0 0 0 0 0 0 0 1 0 0 0 0 0 0 0 0 0 9 550 918 948 1345 1029 1228 1653 2291 2052 1615 1041 1828
0 0 0 0 0 0 0 0 0 5 7 18 5 0 0 0 0 1 0 200 585 1011 1055 949 1074 1270 1388 1466 1951 1836 1292 1143
0 0 0 0 0 0 0 0 4 23 61 8 2 0 0 0 0 0 0 57 991 1262 1232 953 1178 1269 1571 1495 1914 1916 1687 2107
0 0 0 0 1 0 0 0 0 0 2 0 6 1 0 0 0 0 22 59 1270 1569 1550 1207 1442 1498 1709 2070 1655 2045 2625 3173
1 3 10 0 0 0 5 6 17 24 75 37 22 18 10 8 0 0 166 552 1510 1758 1930 2082 1898 2214 1678 1915 2332 1917 2897 2808
10 40 29 6 9 0 0 17 30 33 55 47 25 31 28 36 13 35 609 945 1741 1904 1989 2216 3044 3345 3267 2625 2299 2908 2611 2717
1 4 0 6 19 15 8 7 15 14 34 62 79 69 37 42 23 336 1081 1345 1930 2063 2608 3545 3614 3741 3687 2911 3386 2787 3638 2647
9 16 12 2 12 14 15 13 2 0 6 5 23 29 46 68 94 560 889 1709 1963 2109 2421 2618 2938 4104 3750 3870 3741 3662 3963 3525
27 25 43 43 8 6 13 23 29 29 23 37 30 41 74 202 435 667 1417 1843 2183 2263 2345 2814 2838 3121 3310 3929 4189 4262 4683 4481
62 84 51 39 57 50 30 36 29 25 24 40 98 119 262 924 1339 1402 1186 1820 2451 2508 2634 2965 3003 3030 3187 3379 4425 4645 4702 4437
92 101 46 59 50 47 54 33 29 58 53 101 271 173 508 1378 1273 1411 1496 2117 2637 2758 2917 3090 3013 3302 3740 3279 3498 3692 3555 4289
71 4 4 49 28 21 25 15 23 15 121 263 538 754 1343 1380 1429 1549 1459 2316 2639 2856 3045 3185 3095 3085 3305 3381 3466 3508 3899 3637
91 93 31 29 38 27 66 80 578 478 678 764 977 1284 1185 1243 1604 1723 1610 2239 2708 3122 3247 3311 3229 3086 3499 3740 3002 2784 2811 2761
94 106 34 65 50 99 144 172 313 324 404 506 683 760 934 1020 1420 1724 1708 2051 2292 2804 3472 3328 3189 3393 3434 2596 2527 2427 2397 2289
82 111 207 155 305 134 65 66 151 299 267 192 241 405 618 934 1182 1817 1749 1926 1854 2121 2885 2351 2422 2288 2225 1570 1542 1569 1662 1461
295 80 231 147 223 181 70 171 317 109 49 70 179 211 326 759 1060 1454 1947 1897 2138 2619 2444 2597 2772 2401 2158 1154 1036 988 927 862
180 215 401 131 171 245 124 123 22 10 4 55 63 226 329 647 1058 1357 2145 1924 2301 2669 2425 2721 2505 2299 1708 1330 1085 645 247 260
62 189 352 350 255 133 77 52 38 45 35 74 93 197 452 431 893 1376 2142 2307 2647 2407 2621 2368 2037 1681 1386 1040 1071 504 104 2
55 65 56 52 48 32 33 24 17 1 22 93 112 292 409 464 698 1041 1977 2497 2636 2492 2551 2020 1917 1417 1246 1167 1048 311 157 47